Regional Weather Roundup
Issued by NWS Charleston, WV

Home | Current Version | Previous Version | Graphics & Text | Print | Product List | Glossary On
Versions: 1 2 3 4 5 6 7 8 9 10 11 12 13 14 15 16 17 18 19 20 21 22 23 24 25 26 27
000
ASUS41 KRLX 241110
RWRRLX
West Virginia Regional Weather Roundup
National Weather Service Charleston WV
700 AM EDT MON JUL 24 2017

Note: "fair" indicates few or no clouds below 12,000 feet with no
significant weather and/or obstructions to visibility.

WVZ003-241200-
Northern Panhandle of West Virginia

CITY           SKY/WX    TMP DP  RH WIND       PRES   REMARKS
WHEELING       CLOUDY    66  64  93 W8        29.86S
$$

WVZ009-241200-
Northwest West Virginia

CITY           SKY/WX    TMP DP  RH WIND       PRES   REMARKS
PARKERSBURG    FOG       65  65 100 S3        29.89R VSB 1/16
$$

WVZ006-241200-
Western West Virginia

CITY           SKY/WX    TMP DP  RH WIND       PRES   REMARKS
HUNTINGTON     CLEAR     70  68  93 SW3       29.89R
$$

WVZ015-241200-
West Central West Virginia

CITY           SKY/WX    TMP DP  RH WIND       PRES   REMARKS
CHARLESTON     PTCLDY    72  68  87 SW7       29.90R
$$

WVZ022-031-241200-
North Central West Virginia

CITY           SKY/WX    TMP DP  RH WIND       PRES   REMARKS
CLARKSBURG     CLOUDY    68  65  90 S3        29.88S
MORGANTOWN     CLOUDY    66  65  96 SW3       29.89R FOG
$$

WVZ025-035-042-045-241200-
Southern West Virginia

CITY           SKY/WX    TMP DP  RH WIND       PRES   REMARKS
BECKLEY        CLOUDY    67  66  97 SW3       29.98R
LOGAN          CLOUDY    72  70  94 CALM      29.94S
BLUEFIELD      CLOUDY    67  65  93 W8        30.01R
LEWISBURG      CLOUDY    67  64  92 SW3       29.95R
$$

WVZ047-241200-
Northern Mountains of West Virginia

CITY           SKY/WX    TMP DP  RH WIND       PRES   REMARKS
ELKINS         MOCLDY    69  64  84 CALM      29.93R
$$

WVZ052-241200-
Eastern Panhandle of West Virginia

CITY           SKY/WX    TMP DP  RH WIND       PRES   REMARKS
MARTINSBURG    CLEAR     71  68  90 N5        29.79R
PETERSBURG     CLEAR     73  66  76 W5        29.85R
$$




USA.gov is the U.S. government's official web portal to all federal, state and local government web resources and services.